Wind_Speed
40 41 41 41 38 40 41 46 46 48 48 53 57 61 66 71 76 81 84 87 91 93 93 93 100 101 103 108 110 113 115 118 117 117 123 124 123 119 112 107 106 101 92
42 40 41 40 39 41 42 47 49 53 55 58 63 67 72 77 82 84 88 91 90 92 95 96 101 105 107 109 113 116 117 118 119 122 124 125 122 117 108 107 104 98 88
44 43 41 43 44 47 49 53 53 56 59 63 68 72 76 80 83 85 89 92 94 95 98 99 102 104 107 112 115 116 118 121 125 126 122 121 116 112 107 106 99 90 83
43 41 43 45 49 53 54 56 57 61 65 69 72 75 79 82 84 87 91 94 99 99 103 106 108 112 115 117 117 120 124 126 125 124 121 117 115 110 106 101 93 85 79
42 40 41 46 48 53 56 59 62 66 69 73 76 80 82 83 86 91 93 96 99 100 103 107 110 112 114 117 122 124 125 126 126 124 120 115 113 111 103 95 86 79 76
47 46 49 53 55 59 62 65 68 70 73 77 80 81 83 86 90 92 95 96 98 101 105 107 110 112 117 120 123 124 124 124 125 126 121 118 112 109 98 90 82 76 72
50 50 52 55 59 62 66 69 71 74 76 77 79 82 85 88 90 92 94 96 98 102 105 108 113 117 120 123 122 121 123 125 124 122 118 117 111 104 91 83 78 71 67
47 48 48 51 55 59 62 64 66 70 74 78 82 84 86 87 89 91 94 97 99 103 108 111 114 117 120 123 124 124 122 118 119 119 116 111 103 94 86 79 74 67 63
45 47 49 53 56 58 62 66 70 73 76 78 80 83 86 87 89 92 94 97 101 106 110 113 116 119 121 123 124 120 118 117 116 113 108 101 95 87 81 74 68 63 60
48 49 51 54 57 60 64 67 69 71 74 77 80 82 84 88 91 94 98 103 105 108 111 114 116 117 118 117 119 120 117 115 114 107 98 90 89 79 75 72 65 61 56
53 54 56 58 60 62 64 66 67 70 74 78 83 87 89 93 94 97 101 106 109 110 112 111 111 113 114 115 115 115 115 111 105 100 92 81 77 78 71 68 63 59 55
57 58 59 60 61 61 62 66 70 74 77 80 84 88 90 93 94 99 104 109 112 111 111 110 110 111 111 111 113 110 106 103 95 92 85 80 74 68 67 66 61 61 55
59 57 56 57 60 64 68 71 73 76 81 83 88 90 92 95 100 102 107 110 111 110 110 110 110 113 114 111 107 104 99 94 89 83 79 75 71 66 62 59 55 55 52
51 53 57 61 65 69 72 76 80 84 85 87 91 94 95 98 103 106 106 108 108 108 107 109 113 113 109 105 101 97 91 86 82 78 75 70 66 62 61 56 52 52 48
56 59 63 68 70 74 78 80 81 84 88 92 95 98 99 105 107 107 109 110 107 106 106 108 105 101 98 95 94 89 84 80 77 75 70 67 64 60 57 52 48 47 45
61 65 71 74 76 78 78 80 83 86 92 97 100 101 105 105 106 109 111 107 107 108 105 100 94 92 91 89 86 83 79 75 72 71 67 63 59 55 52 49 45 45 42
68 73 78 76 74 77 82 84 84 92 99 103 103 103 105 107 109 110 108 108 108 105 97 92 90 87 84 81 79 77 74 71 69 65 61 57 55 51 47 44 43 41 38
71 72 75 75 78 82 87 90 93 99 103 101 99 103 107 112 112 111 110 109 105 99 93 89 86 83 79 75 74 72 70 67 62 60 55 53 51 47 43 42 40 38 36
75 81 82 83 87 92 96 100 104 106 108 105 107 110 112 114 113 112 111 105 98 95 91 88 83 79 75 73 69 67 64 60 58 56 53 50 47 44 41 39 37 35 34
91 90 91 95 98 103 104 108 109 110 109 114 115 116 117 117 116 111 105 98 95 90 85 82 79 77 73 69 66 63 59 56 53 51 49 47 44 41 39 38 35 34 32
96 101 105 108 110 110 112 113 114 115 117 117 118 119 121 118 113 105 100 95 91 84 79 77 75 72 68 65 62 59 55 51 49 48 45 45 42 40 38 35 33 32 30
106 107 111 114 114 117 117 117 118 118 120 121 121 120 117 111 105 100 96 91 86 80 75 74 72 67 64 61 57 54 52 49 46 45 42 43 40 37 35 33 32 31 30
114 115 118 120 119 118 119 120 121 122 122 121 120 116 110 103 99 96 91 86 81 77 72 70 67 63 59 57 54 51 49 46 43 43 41 41 38 35 34 31 30 30 29
115 120 121 122 121 121 122 123 123 123 122 119 114 108 103 99 95 91 87 82 77 73 68 66 62 60 56 54 51 48 45 44 41 41 39 38 35 32 33 30 29 29 28
121 123 123 124 123 125 124 123 122 120 116 111 107 104 100 95 90 86 83 78 72 68 65 62 60 58 54 50 48 43 41 41 40 39 38 36 33 31 31 29 28 28 27
123 123 124 125 124 122 121 119 117 112 107 104 101 97 93 89 85 81 77 72 68 65 63 60 57 54 49 46 44 40 39 39 38 36 35 34 31 29 29 26 26 27 26
Wind_Direction
282 276 270 270 272 270 262 260 260 263 269 276 279 280 279 280 283 287 291 295 297 300 303 308 307 308 308 308 308 307 309 310 310 311 310 311 312 313 315 315 315 312 309
281 273 271 270 266 262 261 260 262 265 267 270 273 278 281 283 286 290 294 296 300 303 306 307 307 307 307 306 307 308 308 308 309 310 310 311 313 314 315 316 314 311 309
279 272 269 267 268 264 263 265 269 270 272 273 275 279 282 286 291 295 298 301 303 305 305 305 303 304 304 304 306 308 308 309 309 310 310 312 314 314 316 315 313 311 308
276 275 273 267 264 265 265 268 270 273 275 278 282 286 289 293 298 300 302 303 304 305 306 307 307 308 308 308 309 308 309 309 309 310 312 313 314 315 315 314 313 311 308
280 277 269 267 265 267 268 272 275 278 280 285 288 291 295 298 299 301 302 303 304 306 305 305 306 306 308 308 307 308 308 310 311 312 314 314 315 315 315 313 312 310 308
279 279 274 274 274 272 275 278 280 283 286 288 291 295 297 298 300 301 302 304 304 304 305 305 306 306 306 306 307 309 310 311 312 312 313 314 314 313 314 313 311 310 308
277 280 280 278 276 276 277 279 282 285 287 291 294 295 297 299 300 301 302 303 304 304 304 305 304 305 306 307 308 309 309 311 311 311 313 313 313 312 312 311 310 309 306
281 280 281 281 280 281 283 285 288 291 293 293 295 296 298 299 299 300 301 303 304 304 304 304 305 307 307 308 309 310 310 310 309 310 310 311 311 310 310 310 308 308 305
289 290 292 293 292 291 291 291 290 291 294 295 297 297 298 299 300 302 303 304 305 306 307 308 307 308 308 308 308 309 309 309 308 308 309 310 309 309 308 308 307 306 305
290 290 289 290 291 290 290 293 294 294 295 296 297 299 299 299 300 302 303 306 306 306 307 308 307 307 307 307 307 308 308 308 307 309 308 309 308 308 307 307 307 305 303
287 288 289 290 291 291 291 294 296 296 297 297 298 300 301 302 304 305 305 305 306 306 306 306 306 306 306 307 307 307 306 306 308 308 308 308 307 307 307 304 304 302 301
287 287 288 290 292 293 294 296 298 299 301 303 305 305 304 305 306 307 307 306 306 307 306 306 306 307 307 307 306 304 305 306 307 306 307 307 307 306 304 302 302 301 301
287 289 290 292 295 296 297 298 301 303 305 306 307 308 308 307 307 307 306 306 306 307 306 308 309 310 309 307 306 305 306 306 306 306 306 307 306 305 302 301 298 296 296
287 289 291 292 293 296 299 303 305 306 306 307 308 309 308 308 306 305 306 307 307 307 309 311 312 311 309 307 306 305 306 306 305 305 306 306 304 304 301 300 297 295 294
288 290 294 297 301 304 305 306 307 308 309 309 307 309 308 305 305 306 307 307 308 309 311 312 311 310 309 306 306 306 306 306 306 305 305 305 303 302 300 300 296 293 292
291 296 303 305 304 304 305 307 310 311 311 309 309 307 305 306 306 308 309 309 311 312 312 312 311 309 308 307 306 306 306 306 306 305 304 303 302 300 300 299 296 291 290
298 297 299 302 304 308 310 308 305 308 312 311 309 307 307 307 309 310 310 312 312 313 312 311 310 309 307 307 306 306 306 306 305 304 303 302 301 300 300 297 294 291 289
302 302 303 304 306 307 308 308 309 310 308 307 307 308 310 312 312 313 314 314 314 313 312 312 310 308 307 306 306 306 306 306 305 304 303 302 300 300 299 295 292 290 287
310 311 308 304 304 306 307 309 308 308 308 308 311 313 314 314 314 314 314 314 313 313 313 311 309 307 307 306 306 306 306 305 305 303 302 300 300 298 296 293 290 288 286
310 310 309 310 312 311 310 309 307 309 312 314 314 314 314 315 314 313 314 313 313 312 311 309 308 307 307 307 307 306 305 305 304 302 301 299 298 297 294 290 288 286 284
312 313 314 313 312 310 308 308 311 314 314 314 314 314 314 313 313 313 313 312 312 311 311 309 307 306 306 307 307 306 305 304 303 301 299 298 298 295 292 289 286 283 281
309 307 310 312 311 309 310 311 312 313 313 313 313 313 312 312 312 312 312 312 311 311 310 308 306 306 307 307 307 306 304 303 301 299 298 296 296 293 290 287 284 280 279
308 310 310 309 309 311 310 311 312 312 312 312 312 311 311 311 311 312 311 311 311 310 309 307 307 307 307 306 306 305 303 301 300 298 297 295 294 292 288 286 282 279 276
306 307 308 309 309 309 311 311 311 311 311 310 310 310 310 311 311 311 311 310 310 309 308 306 306 306 306 305 304 303 300 299 299 297 296 294 292 289 285 283 278 275 274
305 306 307 307 309 309 308 308 308 308 309 309 309 309 309 309 309 310 309 309 308 308 306 305 305 305 305 304 302 300 299 298 297 295 294 292 290 286 282 279 275 272 272
305 305 306 307 306 305 306 306 307 307 307 307 307 307 307 308 308 308 308 308 307 306 305 304 305 305 304 302 300 299 298 296 295 293 291 289 287 283 280 277 270 268 268
Height
10558 10558 10557 10556 10555 10553 10551 10548 10545 10542 10539 10535 10530 10526 10520 10513 10505 10497 10489 10480 10471 10459 10449 10438 10421 10410 10398 10383 10369 10355 10339 10321 10311 10299 10277 10261 10248 10235 10222 10207 10188 10174 10160
10546 10545 10544 10546 10544 10543 10542 10538 10535 10530 10527 10522 10517 10512 10505 10497 10490 10482 10472 10461 10454 10442 10429 10419 10403 10388 10375 10362 10346 10331 10316 10301 10287 10274 10256 10236 10221 10206 10193 10180 10163 10145 10134
10536 10534 10534 10534 10534 10532 10530 10526 10522 10517 10513 10508 10502 10497 10490 10482 10474 10466 10452 10441 10430 10421 10409 10398 10384 10371 10358 10340 10323 10309 10292 10276 10259 10244 10234 10213 10199 10181 10170 10154 10139 10124 10110
10525 10525 10524 10521 10520 10518 10516 10513 10509 10505 10500 10494 10488 10481 10474 10466 10456 10445 10434 10422 10409 10399 10383 10368 10354 10340 10326 10310 10295 10279 10264 10248 10234 10216 10203 10187 10170 10158 10145 10131 10116 10101 10090
10514 10511 10511 10508 10505 10505 10503 10500 10496 10491 10485 10480 10472 10465 10457 10448 10437 10425 10416 10404 10391 10378 10363 10349 10336 10320 10304 10286 10269 10256 10236 10219 10202 10185 10171 10159 10146 10131 10118 10106 10094 10081 10067
10504 10501 10499 10497 10494 10491 10489 10485 10481 10476 10471 10463 10455 10448 10437 10428 10419 10408 10395 10384 10372 10358 10343 10328 10312 10295 10280 10265 10248 10232 10214 10198 10181 10159 10146 10129 10122 10106 10094 10083 10071 10061 10051
10492 10489 10487 10484 10481 10478 10474 10470 10466 10460 10455 10448 10439 10429 10420 10410 10398 10387 10377 10366 10352 10336 10320 10305 10289 10272 10255 10238 10224 10214 10197 10173 10153 10138 10125 10110 10095 10080 10076 10064 10051 10043 10033
10480 10478 10475 10472 10469 10465 10461 10456 10450 10444 10436 10428 10419 10409 10399 10389 10380 10368 10357 10344 10330 10314 10299 10283 10267 10250 10230 10211 10195 10182 10166 10158 10139 10118 10104 10091 10075 10062 10051 10044 10033 10026 10015
10467 10463 10460 10456 10453 10449 10445 10439 10433 10426 10418 10408 10399 10390 10379 10368 10358 10346 10335 10323 10308 10292 10274 10256 10240 10225 10206 10187 10167 10157 10145 10127 10107 10099 10086 10069 10052 10042 10031 10025 10017 10010 10000
10454 10451 10448 10444 10439 10434 10428 10422 10415 10408 10400 10391 10381 10370 10359 10347 10338 10324 10309 10294 10284 10271 10254 10235 10217 10198 10183 10166 10144 10125 10114 10100 10080 10070 10064 10053 10031 10025 10014 10004 9997 9992 9987
10441 10437 10433 10428 10423 10418 10412 10405 10398 10389 10380 10371 10360 10348 10336 10323 10312 10299 10284 10269 10259 10247 10231 10215 10198 10179 10161 10144 10125 10106 10086 10074 10061 10043 10035 10030 10019 10000 9995 9988 9981 9977 9971
10426 10422 10418 10413 10407 10400 10393 10387 10379 10370 10360 10349 10337 10325 10314 10300 10291 10279 10261 10244 10229 10218 10204 10189 10172 10155 10136 10120 10099 10082 10065 10048 10042 10026 10014 10003 9996 9992 9981 9971 9964 9955 9952
10413 10408 10402 10397 10391 10384 10377 10370 10361 10350 10340 10330 10318 10305 10292 10278 10266 10253 10239 10221 10205 10189 10174 10158 10139 10120 10102 10085 10068 10051 10040 10028 10017 10006 9994 9985 9976 9969 9963 9957 9951 9945 9939
10398 10393 10387 10381 10374 10367 10360 10350 10341 10329 10319 10308 10296 10283 10270 10255 10244 10229 10214 10197 10182 10165 10148 10131 10111 10091 10073 10055 10041 10027 10018 10007 9994 9985 9975 9967 9960 9953 9945 9941 9935 9929 9925
10382 10377 10371 10364 10356 10347 10337 10328 10319 10306 10296 10285 10273 10260 10247 10233 10218 10203 10188 10171 10156 10139 10125 10106 10088 10068 10052 10036 10020 10006 9996 9985 9974 9963 9957 9949 9942 9935 9929 9925 9920 9914 9910
10366 10360 10353 10344 10335 10326 10317 10306 10295 10287 10275 10262 10248 10235 10220 10208 10193 10176 10159 10141 10123 10106 10091 10075 10059 10042 10026 10012 9997 9985 9973 9965 9955 9946 9939 9932 9925 9920 9914 9909 9905 9900 9897
10348 10342 10333 10323 10313 10304 10293 10284 10278 10262 10247 10237 10222 10210 10193 10178 10164 10147 10129 10110 10092 10076 10061 10047 10032 10019 10006 9992 9978 9967 9956 9946 9938 9930 9922 9916 9910 9905 9901 9896 9891 9887 9885
10329 10321 10310 10300 10291 10281 10272 10260 10248 10236 10226 10215 10203 10184 10166 10146 10131 10113 10096 10079 10063 10046 10033 10021 10008 9995 9983 9973 9960 9949 9939 9930 9921 9913 9907 9901 9895 9891 9887 9883 9879 9876 9873
10306 10298 10289 10280 10271 10259 10246 10235 10221 10208 10193 10178 10162 10147 10134 10117 10100 10086 10070 10054 10038 10023 10008 9995 9982 9972 9962 9952 9941 9931 9922 9914 9906 9898 9892 9886 9882 9878 9874 9871 9868 9865 9862
10283 10275 10265 10253 10238 10228 10217 10205 10192 10177 10160 10145 10131 10117 10099 10086 10071 10057 10042 10029 10014 10002 9988 9975 9961 9950 9941 9931 9922 9913 9905 9898 9891 9884 9878 9872 9869 9865 9862 9859 9857 9854 9852
10251 10243 10232 10224 10214 10202 10189 10175 10160 10144 10130 10116 10101 10088 10070 10057 10044 10030 10017 10004 9992 9980 9967 9954 9942 9931 9921 9912 9904 9896 9889 9883 9876 9870 9865 9860 9857 9853 9850 9848 9846 9844 9842
10233 10223 10211 10198 10187 10173 10159 10145 10131 10117 10103 10088 10072 10058 10045 10030 10016 10003 9991 9980 9969 9958 9947 9934 9922 9913 9904 9895 9887 9880 9873 9868 9863 9858 9853 9848 9846 9843 9840 9837 9835 9834 9832
10207 10194 10183 10171 10157 10144 10131 10117 10103 10089 10074 10059 10044 10030 10017 10004 9991 9979 9968 9957 9946 9936 9925 9914 9903 9894 9887 9879 9872 9866 9859 9854 9850 9845 9841 9837 9835 9831 9829 9827 9825 9823 9823
10182 10169 10156 10143 10131 10118 10103 10089 10075 10061 10046 10032 10018 10004 9991 9979 9968 9956 9946 9935 9924 9914 9905 9895 9886 9878 9872 9864 9858 9853 9846 9840 9837 9833 9829 9825 9823 9821 9818 9817 9816 9814 9813
10154 10142 10129 10117 10103 10089 10076 10062 10048 10033 10020 10006 9992 9979 9967 9956 9945 9934 9924 9914 9903 9894 9885 9877 9869 9862 9856 9850 9844 9839 9833 9828 9824 9821 9817 9814 9812 9811 9808 9807 9806 9805 9805
10125 10113 10101 10088 10076 10063 10048 10033 10020 10006 9993 9980 9967 9956 9945 9934 9923 9912 9902 9894 9885 9875 9867 9859 9852 9846 9840 9835 9830 9825 9821 9816 9813 9810 9806 9804 9802 9801 9799 9798 9797 9796 9797